User: anonymous   Login
Location: Chakepay
(13.3931°S, 72.1925°W)
Time: 00:06:39
(UTC+00:00)
Language:

ASTEX 1 - Orbit

View from above orbital plane
View from above orbital plane
View from above satellite
View from above satellite

Ground track
Ground track

The orbit data is extracted from the following two-line orbital elements,

1  5560U 71089A   20028.82574337  .00000058  00000-0  15826-4 0  9991
2  5560  92.7154 151.6437 0017734  48.5194 311.7530 14.48051050539416
Epoch (UTC): 28 January 2020 19:49:04
Eccentricity: 0.0017734
inclination: 92.7154°
perigee height: 719 km
apogee height: 744 km
right ascension of ascending node: 151.6437°
argument of perigee: 48.5194°
revolutions per day: 14.48051050
mean anomaly at epoch: 311.7530°
orbit number at epoch: 53941

The dashed part of the orbit path shows where the satellite is in the earth's shadow,  

DLR